Home   Weather   Lafayette   Past weeks
Flag for USA

Past Weather in Lafayette, Indiana, USA — Yesterday and Last 2 Weeks

Now
80 °F

Sunny.


Feels Like: 79 °F
Forecast: 77 / 52 °F
Wind: 10 mph from South

Location: Purdue University Airport

Current Time: Apr 8, 2020 at 5:58:32 pm

Latest Report: Apr 8, 2020 at 4:54 pm


Visibility: 10 mi

Pressure: 29.61 "Hg

Humidity: 23%

Dew Point: 39 °F

Location of LafayetteLocation

Past Weather in Lafayette — Graph

°F

Lafayette Temperature Yesterday

Maximum temperature yesterday: 81 °F (at 4:54 pm)
Minimum temperature yesterday: 57 °F (at 2:54 am)
Average temperature yesterday: 69 °F

High & Low Weather Summary for the Past Weeks

 TemperatureHumidityPressure
High81 °F (Apr 7, 4:54 pm)100% (Apr 6, 7:18 am)30.22 "Hg (Apr 6, 7:18 am)
Low31 °F (Mar 25, 7:13 am)23% (Apr 8, 3:54 pm)29.51 "Hg (Mar 29, 4:54 am)
Average54 °F71%29.93 "Hg
* Reported Mar 24 3:54 pm — Apr 8 3:54 pm, Lafayette. Weather by CustomWeather, © 2020

Note: Actual official high and low records may vary slightly from our data, if they occured in-between our weather recording intervals... More about our weather records

Lafayette Weather History for the Previous 24 Hours

Scroll right to see more
 ConditionsComfort  
Time TempWeatherWind HumidityBarometerVisibility
3:54 pm
Wed, Apr 8
79 °FSunny.5 mph23%29.65 "Hg10 mi
2:54 pm78 °FSunny.6 mph31%29.68 "Hg10 mi
1:54 pm74 °FSunny.6 mph43%29.71 "Hg10 mi
12:54 pm69 °FSunny.3 mph59%29.74 "Hg10 mi
11:54 am62 °FSunny.5 mph73%29.77 "Hg10 mi
11:10 am60 °FScattered clouds.No wind78%29.79 "Hg10 mi
11:01 am58 °FPartly sunny.3 mph84%29.79 "Hg9 mi
9:54 am56 °FFog.5 mph90%29.78 "Hg5 mi
8:54 am56 °FFog.7 mph93%29.76 "Hg5 mi
7:54 am56 °FFog.6 mph93%29.72 "Hg4 mi
7:43 am56 °FFog.7 mph93%29.73 "Hg5 mi
7:34 am56 °FFog.8 mph90%29.73 "Hg5 mi
6:54 am59 °FClear.7 mph84%29.70 "Hg9 mi
6:17 am60 °FPassing clouds.5 mph83%29.71 "Hg10 mi
5:54 am61 °FPassing clouds.5 mph81%29.69 "Hg10 mi
5:25 am61 °FPassing clouds.7 mph81%29.69 "Hg10 mi
4:54 am63 °FOvercast.10 mph78%29.68 "Hg10 mi
4:27 am63 °FPassing clouds.9 mph81%29.69 "Hg10 mi
4:13 am63 °FPassing clouds.9 mph81%29.69 "Hg10 mi
3:35 am67 °FMostly cloudy.No wind87%29.67 "Hg10 mi
2:54 am68 °FClear.7 mph82%29.65 "Hg10 mi
1:54 am70 °FPassing clouds.9 mph76%29.64 "Hg10 mi
12:54 am71 °FPassing clouds.9 mph73%29.64 "Hg10 mi
11:54 pm
Tue, Apr 7
70 °FPassing clouds.6 mph73%29.64 "Hg10 mi
10:54 pm69 °FClear.6 mph73%29.64 "Hg10 mi
9:54 pm72 °FClear.9 mph66%29.63 "Hg10 mi
8:54 pm74 °FClear.10 mph60%29.62 "Hg10 mi
7:54 pm77 °FSunny.9 mph50%29.63 "Hg10 mi
6:54 pm80 °FSunny.10 mph45%29.64 "Hg10 mi
5:54 pm81 °FSunny.15 mph42%29.64 "Hg10 mi
Weather by CustomWeather, © 2020

See weather overview

Advertising